Change the Weather History Date:

Wednesday, January 29, 2014

  Actual Average Record
Temperature  
Mean Temperature 16 °F -  
Max Temperature 21 °F 37 °F 70 °F (2002)
Min Temperature 12 °F 23 °F 10 °F (2005)
Degree Days  
Heating Degree Days 48    
Moisture  
Dew Point 1 °F    
Average Humidity 55    
Maximum Humidity 81    
Minimum Humidity 34    
Precipitation  
Precipitation 0.07 in - - ()
Sea Level Pressure  
Sea Level Pressure 30.25 in    
Wind  
Wind Speed 8 mph (WNW)    
Max Wind Speed 16 mph    
Max Gust Speed 21 mph    
Visibility 7 miles    
Events Snow    
Averages and records for this station are not official NWS values.
T = Trace of Precipitation, MM = Missing Value Source: NWS Daily Summary

Daily Weather History Graph

Daily Weather History Graph

Search for Another Location

Airport or City:

Trip Planner

Search our weather history database for the weather conditions in past years. The results will help you decide how hot, cold, wet, or windy it might be!

Date:

Astronomy

Jan. 29, 2014 Rise Set
Actual Time 7:11 AM EST 5:15 PM EST
Civil Twilight 6:42 AM EST 5:44 PM EST
Nautical Twilight 6:09 AM EST 6:16 PM EST
Astronomical Twilight 5:38 AM EST 6:48 PM EST
Moon 5:45 AM EST (1/29) 4:12 PM EST (1/29)
Length of Visible Light 11h 01m
Length of Day
10h 04m
Waning Crescent, 2% of the Moon is Illuminated
Jan 29
Waning Crescent
Jan 30
New
Feb 6
First Quarter
Feb 14
Full
Feb 22
Last Quarter

Hourly Weather History & Observations

Time (EST) Temp. Windchill Dew Point Humidity Pressure Visibility Wind Dir Wind Speed Gust Speed Precip Events Conditions
12:38 AM 14.0 °F 5.1 °F 5.0 °F 67% 30.26 in 2.5 mi NNW 5.8 mph - 0.01 in Snow Light Snow
12:50 AM 12.2 °F 2.9 °F 6.8 °F 79% 30.25 in 1.8 mi NNW 5.8 mph - 0.01 in Snow Light Snow
12:54 AM 12.9 °F 3.8 °F 6.1 °F 74% 30.27 in 1.8 mi NNW 5.8 mph - 0.01 in Snow Light Snow
1:54 AM 12.9 °F 3.8 °F 8.1 °F 81% 30.25 in 1.5 mi NW 5.8 mph - 0.02 in Snow Light Snow
2:54 AM 12.9 °F 3.8 °F 8.1 °F 81% 30.23 in 1.5 mi NW 5.8 mph - 0.02 in Snow Light Snow
3:25 AM 12.9 °F 2.6 °F 8.1 °F 81% 30.22 in 2.0 mi NNW 6.9 mph - 0.00 in Snow Light Snow
3:41 AM 12.9 °F 1.6 °F 8.1 °F 81% 30.21 in 2.0 mi NNW 8.1 mph - 0.01 in Snow Light Snow
3:54 AM 12.9 °F -0.2 °F 7.0 °F 77% 30.21 in 2.5 mi NNW 10.4 mph - 0.01 in Snow Light Snow
4:33 AM 12.9 °F 1.6 °F 7.0 °F 77% 30.19 in 3.0 mi NW 8.1 mph - 0.00 in Snow Light Snow
4:54 AM 12.9 °F 1.6 °F 7.0 °F 77% 30.20 in 5.0 mi NNW 8.1 mph - 0.01 in Snow Light Snow
5:54 AM 12.9 °F 2.6 °F 3.9 °F 67% 30.22 in 10.0 mi WNW 6.9 mph - 0.00 in   Mostly Cloudy
6:54 AM 12.9 °F -0.2 °F 1.9 °F 62% 30.22 in 10.0 mi NW 10.4 mph - N/A   Overcast
7:54 AM 12.0 °F 0.5 °F -4.0 °F 49% 30.24 in 10.0 mi NW 8.1 mph - N/A   Clear
8:54 AM 12.0 °F 0.5 °F -6.0 °F 44% 30.26 in 10.0 mi NW 8.1 mph - N/A   Clear
9:54 AM 14.0 °F -0.2 °F -7.1 °F 39% 30.26 in 10.0 mi NW 12.7 mph 20.7 mph N/A   Clear
10:54 AM 16.0 °F 3.6 °F -6.0 °F 38% 30.26 in 10.0 mi WNW 10.4 mph - 0.00 in   Clear
11:54 AM 18.0 °F 5.4 °F -5.1 °F 36% 30.25 in 10.0 mi West 11.5 mph - 0.00 in   Clear
12:54 PM 19.0 °F 5.6 °F -5.1 °F 34% 30.22 in 10.0 mi NW 13.8 mph - 0.00 in   Clear
1:54 PM 19.9 °F 5.7 °F -2.9 °F 37% 30.21 in 10.0 mi West 16.1 mph - 0.00 in   Clear
2:54 PM 21.0 °F 7.6 °F -2.9 °F 35% 30.19 in 10.0 mi West 15.0 mph - N/A   Clear
3:54 PM 21.0 °F 8.6 °F -2.9 °F 35% 30.21 in 10.0 mi West 12.7 mph - N/A   Clear
4:54 PM 19.9 °F 6.7 °F -2.9 °F 37% 30.21 in 10.0 mi West 13.8 mph 19.6 mph N/A   Clear
5:54 PM 19.9 °F 6.2 °F -2.9 °F 37% 30.25 in 10.0 mi West 15.0 mph - N/A   Clear
6:54 PM 19.0 °F 8.2 °F -2.9 °F 38% 30.29 in 10.0 mi West 9.2 mph - N/A   Clear
7:54 PM 19.0 °F 8.2 °F -0.9 °F 42% 30.31 in 10.0 mi West 9.2 mph - N/A   Clear
8:54 PM 18.0 °F 7.7 °F -0.9 °F 44% 30.32 in 10.0 mi WSW 8.1 mph - N/A   Clear
9:54 PM 16.0 °F 6.3 °F -0.9 °F 47% 30.33 in 10.0 mi West 6.9 mph - N/A   Clear
10:54 PM 16.0 °F 8.8 °F -2.0 °F 45% 30.34 in 10.0 mi WSW 4.6 mph - N/A   Clear
11:54 PM 16.0 °F 7.4 °F -0.9 °F 47% 30.36 in 10.0 mi West 5.8 mph - N/A   Clear